Sidney, NE

1:32 PM MDT on June 25, 2017 (GMT -0600)
Sidney Municipal

Weather History for KSNY - November, 2013

Change the Weather History Date:

Sunday, November 24, 2013

  Actual Average Record
Temperature  
Mean Temperature 26 °F 34 °F  
Max Temperature 35 °F 47 °F 74 °F (2011)
Min Temperature 17 °F 21 °F -5 °F (1993)
Degree Days  
Heating Degree Days 39 31  
Month to date heating degree days 654 624  
Since 1 July heating degree days 1315 1227  
Cooling Degree Days 0 0  
Month to date cooling degree days 0 0  
Year to date cooling degree days 918 830  
Moisture  
Dew Point 19 °F    
Average Humidity 77    
Maximum Humidity 92    
Minimum Humidity 62    
Precipitation  
Precipitation 0.00 in 0.02 in 0.25 in (1992)
Month to date precipitation 0.35 0.46  
Year to date precipitation 16.82 17.89  
Sea Level Pressure  
Sea Level Pressure 30.21 in    
Wind  
Wind Speed 14 mph (SSW)    
Max Wind Speed 28 mph    
Max Gust Speed 31 mph    
Visibility 10 miles    
Events      
T = Trace of Precipitation, MM = Missing Value Source: NWS Daily Summary

Daily Weather History Graph

Daily Weather History Graph

Search for Another Location

Airport or City:

Trip Planner

Search our weather history database for the weather conditions in past years. The results will help you decide how hot, cold, wet, or windy it might be!

Date:

Astronomy

Nov. 24, 2013 Rise Set
Actual Time 6:50 AM MST 4:26 PM MST
Civil Twilight 6:20 AM MST 4:56 PM MST
Nautical Twilight 5:46 AM MST 5:30 PM MST
Astronomical Twilight 5:13 AM MST 6:03 PM MST
Moon 10:56 PM MST (11/24) 11:37 AM MST (11/24)
Length of Visible Light 10h 36m
Length of Day
9h 36m
Waning Gibbous, 60% of the Moon is Illuminated
Nov 24
Waning Gibbous
Nov 25
Last Quarter
Dec 2
New
Dec 9
First Quarter
Dec 17
Full

Hourly Weather History & Observations

Time (MST) Temp. Windchill Dew Point Humidity Pressure Visibility Wind Dir Wind Speed Gust Speed Precip Events Conditions
12:53 AM 19.0 °F 9.0 °F 12.0 °F 74% 30.46 in 10.0 mi South 8.1 mph - N/A   Clear
1:53 AM 19.9 °F 8.6 °F 12.9 °F 74% 30.43 in 10.0 mi South 10.4 mph - N/A   Clear
2:53 AM 21.9 °F 11.0 °F 15.1 °F 75% 30.40 in 10.0 mi South 10.4 mph - N/A   Clear
3:53 AM 23.0 °F 10.6 °F 15.1 °F 72% 30.36 in 10.0 mi South 13.8 mph - N/A   Clear
4:53 AM 23.0 °F 10.6 °F 15.1 °F 72% 30.36 in 10.0 mi South 13.8 mph - N/A   Clear
5:53 AM 26.1 °F 11.3 °F 16.0 °F 66% 30.32 in 10.0 mi South 23.0 mph 28.8 mph N/A   Clear
6:53 AM 24.1 °F 9.4 °F 14.0 °F 65% 30.34 in 10.0 mi South 20.7 mph - N/A   Clear
7:53 AM 25.0 °F 12.6 °F 15.1 °F 66% 30.32 in 10.0 mi South 15.0 mph - N/A   Clear
8:53 AM 28.0 °F 14.9 °F 18.0 °F 66% 30.29 in 10.0 mi South 19.6 mph 24.2 mph N/A   Clear
9:53 AM 30.0 °F 17.2 °F 21.0 °F 69% 30.25 in 10.0 mi South 20.7 mph - N/A   Clear
10:53 AM 32.0 °F 19.5 °F 23.0 °F 69% 30.22 in 10.0 mi South 21.9 mph 31.1 mph N/A   Clear
11:53 AM 33.1 °F 22.2 °F 24.1 °F 70% 30.17 in 10.0 mi South 17.3 mph - N/A   Clear
12:53 PM 35.1 °F 25.5 °F 25.0 °F 67% 30.14 in 10.0 mi South 15.0 mph - N/A   Clear
1:53 PM 35.1 °F 25.5 °F 25.0 °F 67% 30.11 in 10.0 mi South 15.0 mph - N/A   Clear
2:53 PM 35.1 °F 25.5 °F 24.1 °F 64% 30.09 in 10.0 mi South 15.0 mph - N/A   Clear
3:53 PM 34.0 °F 26.0 °F 25.0 °F 70% 30.07 in 10.0 mi South 10.4 mph - N/A   Clear
4:53 PM 28.0 °F 20.0 °F 21.9 °F 78% 30.09 in 10.0 mi SSW 8.1 mph - N/A   Clear
5:53 PM 23.0 °F 13.9 °F 19.0 °F 85% 30.10 in 10.0 mi SSW 8.1 mph - N/A   Clear
6:53 PM 23.0 °F 14.7 °F 19.9 °F 88% 30.10 in 10.0 mi SW 6.9 mph - N/A   Clear
7:53 PM 21.0 °F 11.4 °F 18.0 °F 88% 30.09 in 10.0 mi West 8.1 mph - N/A   Clear
8:53 PM 21.9 °F 9.8 °F 18.0 °F 85% 30.08 in 10.0 mi WNW 12.7 mph - N/A   Clear
9:53 PM 21.0 °F 8.1 °F 17.1 °F 85% 30.08 in 9.0 mi NW 13.8 mph - N/A   Clear
10:53 PM 18.0 °F 11.1 °F 15.1 °F 88% 30.09 in 8.0 mi NW 4.6 mph - N/A   Clear
11:53 PM 24.1 °F 12.0 °F 18.0 °F 77% 30.08 in 9.0 mi NNW 13.8 mph - N/A   Clear